Flag for Christmas Island Weather past 2 weeks in The Settlement, Christmas Island

79 °F

Mostly cloudy.

Feels Like: 82 °F
Forecast: 78 / 84 °F
Wind: 13 mph from Southeast

Location: Christmas Island Aerodrome

Current Time: Nov 29, 2015 at 4:07:48 AM

Latest Report: Nov 29, 2015 at 3:30 AM

Visibility: N/A

Pressure: 29.95 "Hg

Humidity: 89%

Dew point: 75 °F

Location of The SettlementLocation

Historic Weather in The Settlement — Graph


The Settlement temperature yesterday

Maximum temperature yesterday: 84 °F (at 10:00 AM)
Minimum temperature yesterday: 77 °F (at 12:00 AM)
Average temperature yesterday: 80 °F

Past Weeks' High & Low Weather Summary

High84 °F (Nov 17, 1:00 PM)94% (Nov 15, 1:30 AM)29.98 "Hg (Nov 15, 1:30 AM)
Low75 °F (Nov 19, 3:00 AM)66% (Nov 17, 12:01 PM)29.80 "Hg (Nov 25, 3:00 PM)
Average79 °F82%29.89 "Hg
* Reported Nov 14 3:00 AM — Nov 29 3:00 AM, The Settlement, Weather by CustomWeather, © 2015

Note: Actual official high and low records may vary slightly from our data, if they occured in-between our weather recording intervals... More about our weather records


The Settlement weather history for previous 24 hours

Time TempWeatherWind HumidityBarometerVisibility
3:00 AM
Sun, Nov 29
79 °FMostly cloudy.12 mph94%29.95 "Hg6 mi
2:30 AM79 °FMostly cloudy.12 mph94%29.95 "HgN/A
2:00 AM79 °FMostly cloudy.12 mph94%29.95 "HgN/A
1:30 AM79 °FMostly cloudy.10 mph94%29.95 "HgN/A
1:00 AM79 °FMostly cloudy.10 mph94%29.95 "HgN/A
12:30 AM79 °FMostly cloudy.13 mph94%29.95 "HgN/A
12:00 AM79 °FMostly cloudy.12 mph94%29.98 "HgN/A
11:30 PM
Sat, Nov 28
79 °FMostly cloudy.13 mph94%29.98 "HgN/A
11:00 PM79 °FLow clouds.13 mph94%29.98 "Hg6 mi
10:00 PM79 °FMostly cloudy.12 mph94%29.98 "HgN/A
9:30 PM79 °FMostly cloudy.13 mph94%29.98 "HgN/A
9:00 PM79 °FLow clouds.12 mph94%29.98 "Hg6 mi
8:00 PM79 °FPassing clouds.12 mph89%29.95 "HgN/A
7:30 PM79 °FPassing clouds.12 mph94%29.95 "HgN/A
7:00 PM79 °FMostly cloudy.13 mph94%29.95 "HgN/A
6:30 PM79 °FMostly cloudy.12 mph94%29.92 "HgN/A
6:00 PM79 °FScattered clouds.10 mph94%29.92 "HgN/A
5:30 PM81 °FMostly cloudy.10 mph89%29.92 "HgN/A
5:00 PM79 °FPartly sunny.13 mph89%29.89 "HgN/A
4:00 PM81 °FMostly cloudy.13 mph89%29.89 "HgN/A
3:30 PM81 °FSprinkles. Cloudy.10 mph89%29.89 "HgN/A
3:00 PM82 °FMostly cloudy.13 mph84%29.89 "HgN/A
2:30 PM81 °FMostly cloudy.14 mph89%29.92 "HgN/A
2:00 PM81 °FMostly cloudy.14 mph89%29.92 "HgN/A
1:30 PM82 °FMostly cloudy.13 mph84%29.92 "HgN/A
1:00 PM84 °FSprinkles. Mostly cloudy.13 mph79%29.92 "HgN/A
12:30 PM82 °FMostly cloudy.13 mph84%29.92 "HgN/A
12:00 PM82 °FMore clouds than sun.13 mph84%29.95 "HgN/A
11:30 AM82 °FMostly cloudy.13 mph84%29.95 "HgN/A
11:00 AM82 °FCloudy.13 mph84%29.95 "HgN/A
10:00 AM84 °FMostly cloudy.13 mph74%29.95 "HgN/A
9:30 AM82 °FLow clouds.13 mph84%29.95 "HgN/A
9:00 AM81 °FMostly cloudy.12 mph89%29.95 "HgN/A
8:00 AM81 °FMostly cloudy.12 mph84%29.95 "HgN/A
7:00 AM81 °FPartly sunny.12 mph84%29.92 "HgN/A
6:30 AM79 °FPartly sunny.8 mph89%29.92 "HgN/A
6:00 AM79 °FMostly cloudy.8 mph89%29.92 "HgN/A
5:30 AM79 °FMostly cloudy.8 mph89%29.92 "HgN/A
5:00 AM77 °FMostly cloudy.8 mph94%29.89 "HgN/A
4:00 AM77 °FMostly cloudy.7 mph94%29.89 "HgN/A
Weather by CustomWeather, © 2015

See weather overviewHow to use our weather pages